Location: Fond Mahaut
(18.0707°N, 63.0465°W)
Time: 16:54:33
(UTC+00:00)

Cosmos 2221 Rocket - Pass Details

Date: 08 December 2019
Orbit: 621 x 648 km, 82.5° (Epoch: 22 January)

Event Time Altitude Azimuth Distance (km) Brightness Sun altitude
Rises 22:18:32 0° 165° (SSE) 2,940 7.1 -10.1°
Reaches altitude 10° 22:20:57 10° 155° (SSE) 2,029 6.2 -10.6°
Maximum altitude 22:24:58 33° 92° (E) 1,083 4.3 -11.5°
Drops below altitude 10° 22:28:58 10° 28° (NNE) 2,019 5.8 -12.4°
Enters shadow 22:29:05 - 28° (NNE) 2,058 5.8 -12.4°
